Regional Weather Roundup
Issued by NWS Newport/Morehead, NC

Current Version | Previous Version | Text Only | Print | Product List | Glossary On
Versions: 1 2 3 4 5 6 7 8 9 10 11 12 13 14 15 16 17 18 19 20 21 22 23 24 25 26 27 28 29 30 31 32 33 34 35 36 37 38 39 40 41 42 43 44 45 46 47 48 49 50
000
ASUS42 KMHX 241922
RWRMHX
WEATHER ROUNDUP FOR EASTERN NORTH CAROLINA
NATIONAL WEATHER SERVICE NEWPORT/MOREHEAD CITY NC
300 PM EDT FRI OCT 24 2014

NOTE: "FAIR" INDICATES FEW OR NO CLOUDS BELOW 12,000 FEET
WITH NO SIGNIFICANT WEATHER AND/OR OBSTRUCTIONS TO VISIBILITY

NCZ015>017-031-032-045>047-102-103-242000-
NORTH COAST

CITY           SKY/WX    TMP DP  RH WIND       PRES   REMARKS
EDENTON        MOSUNNY   69  47  45 W9        29.93F
ELIZABETH CITY MOSUNNY   71  48  43 NW10      29.92F
KITTY HAWK     MOCLDY    65  48  54 W9        29.91F
MANTEO         PTSUNNY   64  48  56 W7        29.93F

$$

NCZ045>047-081-094-103-104-242000-
CENTRAL COAST

CITY           SKY/WX    TMP DP  RH WIND       PRES   REMARKS
FRISCO         MOSUNNY   65  49  56 NW6       29.94F
SWANQUARTER      N/A     70 N/A N/A NW13G20   29.91S

$$

NCZ095-097-098-100-101-242000-
SOUTHERN COAST

CITY           SKY/WX    TMP DP  RH WIND       PRES   REMARKS
BEAUFORT       MOSUNNY   69  48  47 NW8       29.96F
CEDAR ISLAND     N/A     66 N/A N/A NW6       29.97F
JACKSONVILLE   MOSUNNY   69  46  43 W8        29.96F
PINEY ISLAND   CLEAR     71  46  40 NW8       29.95F
WILMINGTON     MOSUNNY   69  46  43 CALM      29.98F


$$

NCZ011>013-027>030-043-044-078>080-089-090>093-098-242000-
COASTAL PLAIN

CITY           SKY/WX    TMP DP  RH WIND       PRES   REMARKS
AHOSKIE        MOSUNNY   67  44  43 W3        29.94F
CLINTON        MOSUNNY   70  48  46 W3        29.98F
ELIZABETHTOWN  SUNNY     69  46  44 W5        29.97F
GOLDSBORO      MOSUNNY   71  49  46 NW7       29.95F
GREENVILLE     SUNNY     70  45  40 W3        29.98F
HAVELOCK       MOSUNNY   71  47  42 VRB6      29.97F
KENANSVILLE    PTSUNNY   69  42  37 W5        29.98F
KINSTON        MOSUNNY   70  46  43 SW5       29.97F
NEW BERN       SUNNY     72  46  39 NW8       29.97F
RICHLANDS      MOSUNNY   70  46  43 CALM      29.97F
ROCKY MOUNT    SUNNY     69  46  43 W5        29.96F
WASHINGTON     SUNNY     69  45  43 NW5       29.95F
WHITEVILLE     SUNNY     69  46  44 CALM      29.97F

$$

AMZ130-135-150-152-154-156-158-170-250-252-270-ANZ085-086-088-633-658-670-242000-
MARINE OBSERVATIONS

STATION/POSITION TIME  TEMP    WIND        PRES    WAVE   SWELL
                       AIR SEA DIR/SP/G            HT/PER HT/PER
                 (UTC) (F)     (DEG/KT/KT) (MB)    (FT/S) (FT/S)
CHESAPEAKE LIGHT 1900   62     310/ 16/ 18 1013.1
64 E VA BEACH    1900   61 67  310/ 16/ 17 1011.9    6/ 6   3/ 8
DUCK             1900   63 66  350/  5/  7 1012.2
2 E DUCK         1900                        N/A     4/ 7
10 NE DUCK       1900      68                N/A     5/ 6   2/11
OREGON INLET     1900   63 63  300/  8/ 10 1013.2
13E OREGON INLT  1900      69                N/A     5/ 7   2/11
HATTERAS CG      1900   63 64  310/  9/ 10 1014.2
DIAMOND BUOY     1900   62     310/ 10/ 16 1014.3    4/ 9   3/ 9
17 S OCRACOKE    NOT AVBL
CAPE LOOKOUT     1900   67     280/  4/  5 1014.7
BEAUFORT LAB     1900   67 67  350/  4/  7 1013.8
30 SE NEW RIVER  1900   65 75  340/  6/ 10 1014.6    3/ 9   3/ 9
5 SE WRIGHTSVLE  1900   62 72  170/  2/  4   N/A
225 S CAPE HAT   1843   73 78  320/ 10/ 12 1014.1    5/10   5/10
41 SE CHARLESTON 1900   67 78  330/  6/  8 1015.3    3/10   3/10

$$



USA.gov is the U.S. government's official web portal to all federal, state and local government web resources and services.